Time,TemperatureF,DewpointF,PressureIn,WindDirection,WindDirectionDegrees,WindSpeedMPH,WindSpeedGustMPH,Humidity,HourlyPrecipIn,Conditions,Clouds,dailyrainin,SoftwareType,DateUTC
2013-07-02 00:01:00,63.0,55.0,30.01,North,9,0.0,1.0,75,0.00,,,0.00,,2013-07-02 05:01:00,
2013-07-02 00:11:00,61.0,54.0,30.01,North,9,0.0,0.0,77,0.00,,,0.00,,2013-07-02 05:11:00,
2013-07-02 00:22:00,61.0,53.0,30.01,North,9,0.0,0.0,75,0.00,,,0.00,,2013-07-02 05:22:00,
2013-07-02 00:32:00,62.0,54.0,30.01,North,9,0.0,1.0,75,0.00,,,0.00,,2013-07-02 05:32:00,
2013-07-02 00:43:00,61.0,54.0,30.01,North,9,0.0,0.0,78,0.00,,,0.00,,2013-07-02 05:43:00,
2013-07-02 00:53:00,60.0,54.0,30.01,North,9,0.0,0.0,81,0.00,,,0.00,,2013-07-02 05:53:00,
2013-07-02 01:01:00,59.0,54.0,30.00,North,9,0.0,0.0,84,0.00,,,0.00,,2013-07-02 06:01:00,
2013-07-02 01:11:00,59.0,54.0,30.00,North,9,0.0,0.0,84,0.00,,,0.00,,2013-07-02 06:11:00,
2013-07-02 01:23:00,59.0,54.0,30.00,North,9,0.0,0.0,84,0.00,,,0.00,,2013-07-02 06:23:00,
2013-07-02 01:34:00,59.0,54.0,30.00,North,9,0.0,0.0,84,0.00,,,0.00,,2013-07-02 06:34:00,
2013-07-02 01:43:00,58.0,54.0,30.00,North,9,0.0,0.0,85,0.00,,,0.00,,2013-07-02 06:43:00,
2013-07-02 01:53:00,58.0,54.0,30.00,North,9,0.0,0.0,86,0.00,,,0.00,,2013-07-02 06:53:00,
2013-07-02 02:01:00,58.0,54.0,30.00,North,9,0.0,0.0,87,0.00,,,0.00,,2013-07-02 07:01:00,
2013-07-02 02:11:00,58.0,54.0,30.00,North,9,0.0,1.0,87,0.00,,,0.00,,2013-07-02 07:11:00,
2013-07-02 02:22:00,58.0,54.0,30.00,North,9,0.0,0.0,87,0.00,,,0.00,,2013-07-02 07:22:00,
2013-07-02 02:34:00,58.0,54.0,30.00,North,9,0.0,0.0,87,0.00,,,0.00,,2013-07-02 07:34:00,
2013-07-02 02:44:00,58.0,54.0,30.00,North,9,0.0,0.0,87,0.00,,,0.00,,2013-07-02 07:44:00,
2013-07-02 02:53:00,58.0,54.0,29.99,North,9,0.0,1.0,88,0.00,,,0.00,,2013-07-02 07:53:00,
2013-07-02 03:02:00,58.0,54.0,29.99,North,9,0.0,1.0,88,0.00,,,0.00,,2013-07-02 08:02:00,
2013-07-02 03:12:00,58.0,54.0,29.99,North,9,0.0,1.0,88,0.00,,,0.00,,2013-07-02 08:12:00,
2013-07-02 03:22:00,58.0,54.0,29.99,North,9,0.0,0.0,86,0.00,,,0.00,,2013-07-02 08:22:00,
2013-07-02 03:33:00,57.0,53.0,29.99,North,9,0.0,1.0,87,0.00,,,0.00,,2013-07-02 08:33:00,
2013-07-02 03:44:00,57.0,53.0,29.99,North,9,0.0,1.0,87,0.00,,,0.00,,2013-07-02 08:44:00,
2013-07-02 03:53:00,57.0,53.0,29.99,North,9,0.0,3.0,87,0.00,,,0.00,,2013-07-02 08:53:00,
2013-07-02 04:02:00,57.0,53.0,29.99,North,9,0.0,3.0,86,0.00,,,0.00,,2013-07-02 09:02:00,
2013-07-02 04:11:00,58.0,54.0,29.99,North,9,0.0,2.0,85,0.00,,,0.00,,2013-07-02 09:11:00,
2013-07-02 04:23:00,58.0,54.0,29.99,North,9,0.0,2.0,85,0.00,,,0.00,,2013-07-02 09:23:00,
2013-07-02 04:33:00,58.0,54.0,29.99,North,9,0.0,2.0,85,0.00,,,0.00,,2013-07-02 09:33:00,
2013-07-02 04:43:00,57.0,53.0,29.99,North,9,1.0,2.0,87,0.00,,,0.00,,2013-07-02 09:43:00,
2013-07-02 04:52:00,57.0,53.0,29.99,North,9,0.0,2.0,86,0.00,,,0.00,,2013-07-02 09:52:00,
2013-07-02 05:01:00,57.0,53.0,29.99,North,9,0.0,2.0,86,0.00,,,0.00,,2013-07-02 10:01:00,
2013-07-02 05:22:00,57.0,53.0,29.99,North,9,0.0,1.0,86,0.00,,,0.00,,2013-07-02 10:22:00,
2013-07-02 05:33:00,57.0,53.0,29.99,North,9,0.0,1.0,87,0.00,,,0.00,,2013-07-02 10:33:00,
2013-07-02 05:44:00,57.0,53.0,30.00,North,9,0.0,1.0,88,0.00,,,0.00,,2013-07-02 10:44:00,
2013-07-02 05:52:00,57.0,53.0,30.00,North,9,0.0,1.0,88,0.00,,,0.00,,2013-07-02 10:52:00,
2013-07-02 06:01:00,57.0,53.0,30.00,North,9,0.0,2.0,88,0.00,,,0.00,,2013-07-02 11:01:00,
2013-07-02 06:11:00,56.0,53.0,30.00,North,9,0.0,2.0,89,0.00,,,0.00,,2013-07-02 11:11:00,
2013-07-02 06:22:00,57.0,53.0,30.00,North,9,0.0,4.0,88,0.00,,,0.00,,2013-07-02 11:22:00,
2013-07-02 06:33:00,57.0,53.0,30.00,North,9,0.0,2.0,88,0.00,,,0.00,,2013-07-02 11:33:00,
2013-07-02 06:52:00,58.0,54.0,30.01,North,9,0.0,3.0,86,0.00,,,0.00,,2013-07-02 11:52:00,
2013-07-02 07:01:00,58.0,54.0,30.01,North,9,0.0,3.0,86,0.00,,,0.00,,2013-07-02 12:01:00,
2013-07-02 07:11:00,58.0,54.0,30.01,NNE,15,0.0,4.0,87,0.00,,,0.00,,2013-07-02 12:11:00,
2013-07-02 07:23:00,59.0,55.0,30.02,NNE,17,0.0,4.0,87,0.00,,,0.00,,2013-07-02 12:23:00,
2013-07-02 07:33:00,59.0,56.0,30.01,North,5,0.0,4.0,89,0.00,,,0.00,,2013-07-02 12:33:00,
2013-07-02 07:43:00,60.0,55.0,30.02,North,5,0.0,3.0,85,0.00,,,0.00,,2013-07-02 12:43:00,
2013-07-02 07:52:00,61.0,56.0,30.02,North,5,0.0,3.0,83,0.00,,,0.00,,2013-07-02 12:52:00,
2013-07-02 08:01:00,62.0,56.0,30.02,ENE,67,0.0,3.0,80,0.00,,,0.00,,2013-07-02 13:01:00,
2013-07-02 08:11:00,63.0,56.0,30.03,ENE,65,0.0,3.0,79,0.00,,,0.00,,2013-07-02 13:11:00,
2013-07-02 08:22:00,64.0,57.0,30.03,ENE,65,0.0,2.0,77,0.00,,,0.00,,2013-07-02 13:22:00,
2013-07-02 08:34:00,65.0,57.0,30.03,ENE,65,0.0,2.0,76,0.00,,,0.00,,2013-07-02 13:34:00,
2013-07-02 08:43:00,65.0,57.0,30.03,ENE,65,0.0,2.0,76,0.00,,,0.00,,2013-07-02 13:43:00,
2013-07-02 08:52:00,66.0,56.0,30.03,NNE,21,1.0,4.0,71,0.00,,,0.00,,2013-07-02 13:52:00,
2013-07-02 09:02:00,66.0,56.0,30.03,East,89,0.0,4.0,71,0.00,,,0.00,,2013-07-02 14:02:00,
2013-07-02 09:11:00,67.0,57.0,30.03,ENE,76,2.0,6.0,71,0.00,,,0.00,,2013-07-02 14:11:00,
2013-07-02 09:22:00,67.0,57.0,30.03,ENE,76,2.0,6.0,71,0.00,,,0.00,,2013-07-02 14:22:00,
2013-07-02 09:33:00,67.0,56.0,30.03,NE,42,0.0,7.0,68,0.00,,,0.00,,2013-07-02 14:33:00,
2013-07-02 09:43:00,68.0,57.0,30.03,East,86,5.0,11.0,67,0.00,,,0.00,,2013-07-02 14:43:00,
2013-07-02 09:53:00,68.0,57.0,30.02,ENE,78,2.0,8.0,67,0.00,,,0.00,,2013-07-02 14:53:00,
2013-07-02 10:02:00,69.0,57.0,30.02,NE,38,1.0,5.0,65,0.00,,,0.00,,2013-07-02 15:02:00,
2013-07-02 10:22:00,70.0,57.0,30.02,North,5,1.0,4.0,64,0.00,,,0.00,,2013-07-02 15:22:00,
2013-07-02 10:33:00,71.0,56.0,30.02,NNE,15,0.0,6.0,60,0.00,,,0.00,,2013-07-02 15:33:00,
2013-07-02 10:44:00,71.0,56.0,30.02,NNE,15,0.0,6.0,60,0.00,,,0.00,,2013-07-02 15:44:00,
2013-07-02 10:53:00,71.0,56.0,30.02,East,89,4.0,7.0,59,0.00,,,0.00,,2013-07-02 15:53:00,
2013-07-02 11:01:00,72.0,56.0,30.02,North,5,0.0,4.0,58,0.00,,,0.00,,2013-07-02 16:01:00,
2013-07-02 11:12:00,73.0,56.0,30.02,NNE,25,1.0,6.0,55,0.00,,,0.00,,2013-07-02 16:12:00,
2013-07-02 11:22:00,73.0,56.0,30.02,NNE,25,1.0,6.0,55,0.00,,,0.00,,2013-07-02 16:22:00,
2013-07-02 11:33:00,72.0,56.0,30.01,NE,34,3.0,9.0,57,0.00,,,0.00,,2013-07-02 16:33:00,
2013-07-02 11:43:00,74.0,58.0,30.01,ENE,72,3.0,8.0,58,0.00,,,0.00,,2013-07-02 16:43:00,
2013-07-02 11:52:00,74.0,58.0,30.01,ENE,72,3.0,8.0,58,0.00,,,0.00,,2013-07-02 16:52:00,
2013-07-02 12:02:00,74.0,59.0,30.01,ENE,57,4.0,12.0,60,0.00,,,0.00,,2013-07-02 17:02:00,
2013-07-02 12:11:00,74.0,59.0,30.01,ENE,57,4.0,12.0,60,0.00,,,0.00,,2013-07-02 17:11:00,
2013-07-02 12:33:00,74.0,60.0,30.00,North,10,4.0,5.0,61,0.00,,,0.00,,2013-07-02 17:33:00,
2013-07-02 12:43:00,75.0,56.0,30.01,ENE,57,3.0,11.0,52,0.00,,,0.00,,2013-07-02 17:43:00,
2013-07-02 12:53:00,75.0,59.0,30.00,ENE,66,0.0,7.0,57,0.00,,,0.00,,2013-07-02 17:53:00,
2013-07-02 13:02:00,75.0,59.0,30.00,NE,42,3.0,7.0,57,0.00,,,0.00,,2013-07-02 18:02:00,
2013-07-02 13:12:00,75.0,59.0,30.00,North,11,3.0,6.0,57,0.00,,,0.00,,2013-07-02 18:12:00,
2013-07-02 13:23:00,76.0,59.0,30.00,NE,40,1.0,8.0,55,0.00,,,0.00,,2013-07-02 18:23:00,
2013-07-02 13:34:00,76.0,58.0,29.99,NNE,27,0.0,9.0,54,0.00,,,0.00,,2013-07-02 18:34:00,
2013-07-02 13:43:00,76.0,60.0,29.99,NNE,19,0.0,8.0,57,0.00,,,0.00,,2013-07-02 18:43:00,
2013-07-02 13:53:00,76.0,59.0,29.99,NNE,25,2.0,9.0,55,0.00,,,0.00,,2013-07-02 18:53:00,
2013-07-02 14:01:00,76.0,59.0,29.99,NNE,25,2.0,9.0,55,0.00,,,0.00,,2013-07-02 19:01:00,
2013-07-02 14:12:00,76.0,58.0,29.99,NNE,22,0.0,7.0,54,0.00,,,0.00,,2013-07-02 19:12:00,
2013-07-02 14:22:00,76.0,57.0,29.99,North,5,0.0,8.0,52,0.00,,,0.00,,2013-07-02 19:22:00,
2013-07-02 14:34:00,76.0,59.0,29.98,NE,54,1.0,10.0,56,0.00,,,0.00,,2013-07-02 19:34:00,
2013-07-02 14:43:00,77.0,60.0,29.98,NE,36,4.0,7.0,55,0.00,,,0.00,,2013-07-02 19:43:00,
2013-07-02 14:53:00,77.0,57.0,29.98,NE,38,0.0,8.0,51,0.00,,,0.00,,2013-07-02 19:53:00,
2013-07-02 15:02:00,76.0,57.0,29.98,NE,35,1.0,12.0,52,0.00,,,0.00,,2013-07-02 20:02:00,
2013-07-02 15:11:00,76.0,57.0,29.98,NE,35,1.0,12.0,52,0.00,,,0.00,,2013-07-02 20:11:00,
2013-07-02 15:22:00,76.0,58.0,29.98,East,94,7.0,11.0,53,0.00,,,0.00,,2013-07-02 20:22:00,
2013-07-02 15:33:00,77.0,59.0,29.98,ENE,67,3.0,9.0,54,0.00,,,0.00,,2013-07-02 20:33:00,
2013-07-02 15:43:00,75.0,57.0,29.97,East,90,7.0,11.0,54,0.00,,,0.00,,2013-07-02 20:43:00,
2013-07-02 15:52:00,76.0,58.0,29.97,North,355,1.0,8.0,54,0.00,,,0.00,,2013-07-02 20:52:00,
2013-07-02 16:02:00,76.0,58.0,29.97,North,355,1.0,8.0,54,0.00,,,0.00,,2013-07-02 21:02:00,
2013-07-02 16:11:00,75.0,56.0,29.97,East,97,6.0,11.0,51,0.00,,,0.00,,2013-07-02 21:11:00,
2013-07-02 16:22:00,76.0,56.0,29.97,ENE,62,1.0,13.0,50,0.00,,,0.00,,2013-07-02 21:22:00,
2013-07-02 16:33:00,75.0,53.0,29.97,NNE,16,6.0,13.0,46,0.00,,,0.00,,2013-07-02 21:33:00,
2013-07-02 16:44:00,75.0,55.0,29.97,NNE,17,4.0,7.0,49,0.00,,,0.00,,2013-07-02 21:44:00,
2013-07-02 16:52:00,75.0,55.0,29.97,East,90,1.0,6.0,50,0.00,,,0.00,,2013-07-02 21:52:00,
2013-07-02 17:01:00,75.0,52.0,29.97,North,11,0.0,6.0,44,0.00,,,0.00,,2013-07-02 22:01:00,
2013-07-02 17:11:00,75.0,52.0,29.97,North,11,0.0,6.0,44,0.00,,,0.00,,2013-07-02 22:11:00,
2013-07-02 17:22:00,75.0,49.0,29.97,NE,46,1.0,11.0,40,0.00,,,0.00,,2013-07-02 22:22:00,
2013-07-02 17:34:00,75.0,50.0,29.97,NNE,32,2.0,11.0,42,0.00,,,0.00,,2013-07-02 22:34:00,
2013-07-02 17:43:00,75.0,48.0,29.97,North,5,2.0,8.0,39,0.00,,,0.00,,2013-07-02 22:43:00,
2013-07-02 17:53:00,75.0,48.0,29.97,North,5,2.0,8.0,39,0.00,,,0.00,,2013-07-02 22:53:00,
2013-07-02 18:01:00,74.0,49.0,29.96,NNE,21,2.0,7.0,41,0.00,,,0.00,,2013-07-02 23:01:00,
2013-07-02 18:11:00,74.0,49.0,29.96,NNE,21,2.0,7.0,41,0.00,,,0.00,,2013-07-02 23:11:00,
2013-07-02 18:22:00,74.0,47.0,29.96,NNE,21,4.0,7.0,39,0.00,,,0.00,,2013-07-02 23:22:00,
2013-07-02 18:33:00,73.0,47.0,29.96,ENE,60,2.0,6.0,40,0.00,,,0.00,,2013-07-02 23:33:00,
2013-07-02 18:44:00,73.0,49.0,29.96,East,84,2.0,7.0,42,0.00,,,0.00,,2013-07-02 23:44:00,
2013-07-02 18:52:00,73.0,48.0,29.96,ENE,59,0.0,5.0,41,0.00,,,0.00,,2013-07-02 23:52:00,
2013-07-02 19:01:00,73.0,48.0,29.96,ENE,59,0.0,5.0,41,0.00,,,0.00,,2013-07-03 00:01:00,
2013-07-02 19:11:00,72.0,49.0,29.96,ENE,77,0.0,2.0,45,0.00,,,0.00,,2013-07-03 00:11:00,
2013-07-02 19:33:00,72.0,50.0,29.96,ENE,77,0.0,2.0,46,0.00,,,0.00,,2013-07-03 00:33:00,
2013-07-02 19:44:00,71.0,53.0,29.96,East,87,0.0,1.0,53,0.00,,,0.00,,2013-07-03 00:44:00,
2013-07-02 19:52:00,71.0,54.0,29.96,East,87,0.0,1.0,54,0.00,,,0.00,,2013-07-03 00:52:00,
2013-07-02 20:01:00,71.0,55.0,29.96,East,86,0.0,2.0,58,0.00,,,0.00,,2013-07-03 01:01:00,
2013-07-02 20:11:00,70.0,57.0,29.96,East,87,0.0,2.0,64,0.00,,,0.00,,2013-07-03 01:11:00,
2013-07-02 20:22:00,69.0,58.0,29.96,ENE,70,0.0,4.0,67,0.00,,,0.00,,2013-07-03 01:22:00,
2013-07-02 20:33:00,69.0,58.0,29.96,ENE,70,0.0,4.0,67,0.00,,,0.00,,2013-07-03 01:33:00,
2013-07-02 20:42:00,67.0,57.0,29.97,East,94,0.0,5.0,71,0.00,,,0.00,,2013-07-03 01:42:00,
2013-07-02 21:04:00,66.0,57.0,29.97,East,92,1.0,6.0,72,0.00,,,0.00,,2013-07-03 02:04:00,
2013-07-02 21:14:00,66.0,57.0,29.97,ENE,77,0.0,5.0,72,0.00,,,0.00,,2013-07-03 02:14:00,
2013-07-02 21:27:00,66.0,57.0,29.97,ENE,77,0.0,5.0,72,0.00,,,0.00,,2013-07-03 02:27:00,
2013-07-02 21:39:00,63.0,54.0,29.99,East,100,0.0,5.0,73,0.00,,,0.00,,2013-07-03 02:39:00,
2013-07-02 21:44:00,63.0,54.0,29.99,East,81,1.0,4.0,72,0.00,,,0.00,,2013-07-03 02:44:00,
2013-07-02 21:55:00,63.0,54.0,29.99,East,81,1.0,4.0,72,0.00,,,0.00,,2013-07-03 02:55:00,
2013-07-02 22:04:00,63.0,54.0,29.99,East,81,1.0,4.0,72,0.00,,,0.00,,2013-07-03 03:04:00,
2013-07-02 22:13:00,62.0,53.0,29.99,East,86,0.0,6.0,73,0.00,,,0.00,,2013-07-03 03:13:00,
2013-07-02 22:25:00,61.0,53.0,29.99,East,86,1.0,1.0,75,0.00,,,0.00,,2013-07-03 03:25:00,
2013-07-02 22:35:00,61.0,53.0,30.00,East,86,0.0,1.0,75,0.00,,,0.00,,2013-07-03 03:35:00,
2013-07-02 22:47:00,61.0,54.0,30.00,East,86,0.0,1.0,77,0.00,,,0.00,,2013-07-03 03:47:00,
2013-07-02 22:55:00,60.0,53.0,30.00,East,86,0.0,0.0,79,0.00,,,0.00,,2013-07-03 03:55:00,
2013-07-02 23:01:00,59.0,53.0,30.00,East,86,0.0,0.0,81,0.00,,,0.00,,2013-07-03 04:01:00,
2013-07-02 23:11:00,59.0,53.0,30.00,East,86,0.0,0.0,81,0.00,,,0.00,,2013-07-03 04:11:00,
2013-07-02 23:22:00,59.0,53.0,30.00,East,86,0.0,0.0,81,0.00,,,0.00,,2013-07-03 04:22:00,
2013-07-02 23:33:00,59.0,54.0,30.00,East,86,0.0,0.0,82,0.00,,,0.00,,2013-07-03 04:33:00,
2013-07-02 23:43:00,59.0,54.0,30.00,East,86,0.0,0.0,82,0.00,,,0.00,,2013-07-03 04:43:00,
2013-07-02 23:52:00,58.0,53.0,30.01,East,86,0.0,0.0,84,0.00,,,0.00,,2013-07-03 04:52:00,